RH
8 7 6 6 6 6 6 6 6 6 6 6 7 7 7 7 7 7 7 7 7 7 7 7 7 7 7 7 7 7 7 7 7 7 7 7 7 7 7 7 7 7 8 8 8 8 8 9 9 9 9 9 10 10 10 10 10 10 10 10 10 11 13 17 18 18 17 14 12 11 10 9 9 9 8 9 9 9 9 9 9 10 10 11 11 11 11 11 12 12 11 11 12 12 12 11 11 10 10 10 10 10 10
8 7 7 7 6 7 7 7 7 6 6 7 7 7 7 7 7 7 7 7 7 7 7 7 7 8 8 7 8 8 8 8 8 8 8 8 8 8 8 8 8 8 8 8 8 8 8 9 9 9 9 9 10 10 10 10 10 10 10 10 10 10 11 12 14 15 15 13 11 10 10 10 10 10 10 9 9 9 9 9 9 9 9 9 9 9 9 9 9 9 9 9 9 9 9 9 9 9 9 9 9 9 9
9 8 8 7 7 7 7 7 7 7 7 7 7 7 7 7 7 7 7 7 8 8 8 8 8 8 8 8 8 8 8 8 8 8 8 8 8 8 8 8 9 8 8 8 8 9 9 9 9 9 10 10 10 10 10 10 10 10 10 10 10 10 11 11 12 12 12 12 11 10 10 10 10 10 10 10 10 10 10 10 10 10 10 10 10 10 9 9 9 9 9 9 9 9 9 9 8 8 8 8 8 8 9
9 8 8 8 7 7 7 7 7 7 7 7 7 7 7 7 8 8 8 8 8 8 8 8 8 8 8 8 8 8 8 8 8 8 8 9 9 9 9 9 9 9 9 9 9 9 9 9 9 10 10 10 10 10 10 10 11 11 10 11 11 11 12 12 12 12 12 11 11 11 10 10 10 11 11 11 11 11 11 11 11 11 11 11 11 11 11 11 10 10 10 10 10 9 9 9 9 9 9 8 8 8 8
10 9 9 8 8 8 8 7 7 7 8 7 7 7 8 8 8 8 8 8 8 9 9 9 9 9 9 9 9 9 9 9 9 9 9 9 9 9 9 9 9 9 9 9 9 10 10 10 10 10 10 10 10 10 10 10 10 10 11 11 11 11 12 12 12 12 12 12 11 11 11 10 10 10 10 11 11 11 11 11 11 11 11 11 11 11 11 11 11 11 11 11 11 11 10 10 10 10 10 9 9 9 9
10 10 10 9 9 9 9 8 8 8 8 8 8 8 8 8 8 8 8 8 9 9 9 9 9 9 10 9 9 9 9 9 9 9 9 9 9 9 10 10 10 10 10 10 10 10 10 10 10 10 11 11 11 11 10 10 10 11 11 11 11 11 12 12 12 12 12 12 12 11 11 10 10 10 10 10 11 11 11 11 11 11 11 11 12 11 12 12 12 12 12 12 12 11 11 11 11 11 11 11 10 10 10
10 10 10 10 10 10 10 10 9 9 9 9 8 8 8 8 8 8 8 9 9 9 9 10 10 10 10 10 10 10 10 10 10 10 10 10 10 10 10 10 10 10 10 11 11 11 11 11 11 11 11 11 11 11 11 11 11 11 11 11 11 11 11 11 11 12 12 12 12 11 11 11 11 10 10 10 10 10 11 11 11 11 11 11 11 11 12 12 12 12 12 12 12 12 12 12 12 11 11 11 11 11 11
10 11 11 10 11 11 11 11 11 11 10 10 9 9 9 9 9 9 9 9 9 9 10 10 10 10 10 10 10 11 10 10 10 10 10 10 10 10 10 10 11 11 11 11 11 11 11 11 11 11 11 11 11 11 11 11 11 11 10 11 11 11 11 10 10 11 11 11 11 11 11 11 11 10 10 10 10 10 10 10 10 10 11 11 11 11 11 11 12 12 12 12 12 12 12 12 12 12 12 12 12 12 12
11 11 11 11 11 11 12 12 13 13 12 12 11 11 10 10 10 10 10 10 10 10 10 10 11 11 11 11 11 11 11 11 11 11 11 11 11 11 11 11 11 11 11 11 11 11 11 11 11 11 11 11 11 11 10 10 10 10 10 10 10 10 10 10 10 10 10 10 10 11 10 11 11 10 10 10 10 10 10 10 10 10 10 10 10 10 11 11 11 11 11 11 11 12 12 12 12 12 12 12 12 12 12
11 11 11 11 11 11 12 13 13 14 14 14 13 13 12 12 12 12 12 12 12 12 12 12 11 11 11 11 11 11 11 12 12 12 12 11 11 11 11 11 11 11 11 11 11 11 11 11 11 10 10 10 10 10 10 10 10 9 9 9 9 9 9 9 9 9 9 10 10 10 10 10 11 11 10 10 10 10 10 10 9 9 9 9 10 10 10 10 10 10 11 11 11 11 11 11 11 11 11 12 12 12 12
12 11 11 11 11 11 12 12 13 13 14 15 14 14 14 14 14 14 14 14 14 13 13 13 13 13 13 13 13 12 12 12 12 12 12 12 12 12 12 12 12 12 12 12 12 11 11 11 11 11 10 10 10 10 10 10 9 9 9 9 9 9 9 9 9 9 9 9 9 10 10 10 11 10 11 10 10 10 10 10 10 10 9 9 9 10 10 10 10 10 10 11 11 11 11 11 11 11 11 11 11 11 11
12 12 11 12 12 12 12 12 12 12 13 14 14 15 15 15 15 15 15 15 15 15 15 15 15 15 15 15 14 14 14 13 13 13 13 13 13 13 13 13 13 12 12 12 12 12 12 11 11 11 11 10 10 10 10 10 10 10 9 9 9 9 9 9 9 9 9 10 10 10 10 10 11 11 11 11 11 10 10 10 10 10 10 10 10 10 10 10 10 10 10 10 10 11 11 11 11 11 11 11 11 11 11
13 13 13 13 13 13 12 12 12 12 12 12 13 14 14 15 15 15 16 16 16 16 16 16 16 16 16 16 16 15 15 15 15 15 14 14 14 14 14 14 13 13 13 13 13 13 12 12 12 12 12 11 11 11 11 11 11 11 10 10 10 10 10 10 10 10 10 10 10 10 10 10 11 11 11 11 11 11 11 11 11 11 11 11 11 11 11 11 11 11 11 11 11 11 11 11 11 11 11 11 11 11 11
15 15 15 15 15 14 13 13 12 12 12 12 12 12 13 13 14 14 15 15 15 16 16 16 16 16 16 16 16 16 16 16 16 16 16 16 16 15 15 15 15 15 15 14 14 14 14 14 13 13 13 13 13 13 12 12 12 12 11 11 11 11 11 11 11 11 11 11 11 11 11 11 11 11 11 11 11 12 12 12 12 12 12 11 11 12 11 11 12 12 12 12 11 11 11 11 11 11 11 11 11 11 12
18 18 18 18 18 17 15 14 13 13 12 12 12 12 12 12 12 13 13 14 14 14 15 15 15 15 16 16 16 16 16 16 16 16 16 16 16 16 16 16 16 16 16 16 15 15 15 15 15 15 15 15 14 14 14 14 13 13 13 13 13 12 12 12 12 12 12 12 12 12 12 12 12 12 12 12 12 12 12 12 12 12 12 12 12 12 12 12 12 12 12 12 12 12 12 12 11 11 11 11 11 11 11
20 21 21 21 20 19 18 17 15 15 14 14 14 13 13 12 12 13 13 13 13 14 14 14 15 15 15 15 16 16 16 16 16 16 16 16 16 16 16 17 17 17 17 17 17 16 16 16 16 16 16 16 16 16 16 15 15 15 15 14 14 14 14 14 13 13 13 13 13 13 13 13 13 13 13 13 13 13 13 13 13 13 13 13 13 13 13 13 13 13 13 13 13 13 13 13 13 12 12 12 11 11 11
22 22 22 22 22 21 20 19 18 17 16 15 15 15 15 14 14 14 14 14 14 14 14 14 14 15 15 15 15 16 16 16 16 16 16 16 16 16 16 16 17 17 17 17 17 17 17 17 17 17 17 17 17 17 17 17 16 16 16 16 16 15 15 15 15 14 14 14 14 14 14 14 14 14 13 13 13 13 13 13 13 13 13 13 13 13 13 14 13 13 13 13 13 13 13 13 13 13 13 13 12 12 12
23 23 24 24 24 23 23 22 21 19 18 17 17 17 17 17 17 17 17 17 16 16 16 15 15 15 15 15 15 15 16 16 16 17 17 17 17 17 17 17 17 17 17 17 17 17 17 17 17 17 17 17 17 17 17 17 17 17 17 16 16 16 16 16 15 15 15 15 15 15 15 14 14 14 14 14 14 14 14 14 14 14 14 14 14 14 14 14 14 14 14 14 14 14 14 14 14 14 14 14 14 13 13
23 24 24 25 25 25 25 24 23 22 20 19 19 18 19 19 19 19 19 19 18 18 17 17 16 16 16 15 15 15 16 16 16 17 17 17 18 18 18 17 17 17 17 17 17 17 17 17 17 17 17 17 17 17 17 17 17 17 17 17 16 16 16 16 15 15 15 15 15 15 14 15 14 14 14 14 14 14 14 14 14 14 14 14 14 14 14 14 15 15 14 14 14 14 14 14 14 14 14 14 14 14 14
25 25 26 27 27 28 27 27 25 24 22 21 20 20 20 20 20 20 20 19 19 18 18 17 17 17 16 16 16 16 16 16 16 16 17 17 18 18 18 18 18 18 17 17 17 17 17 17 17 17 17 17 17 17 17 17 17 17 17 16 16 16 16 16 15 15 15 15 15 14 14 14 14 14 14 14 14 14 14 14 14 14 14 14 14 14 14 14 15 15 15 15 15 15 15 15 15 15 15 15 15 15 15
27 28 28 29 30 30 29 28 27 26 24 23 22 21 21 21 21 20 20 20 19 19 18 18 17 17 17 16 16 16 16 16 16 16 16 16 17 17 17 18 18 17 17 17 17 17 17 17 17 17 17 17 17 17 17 17 17 17 17 17 17 16 16 16 16 16 15 15 15 15 15 14 14 14 14 14 14 14 14 14 14 14 14 14 14 14 14 14 14 15 15 15 15 15 15 15 15 15 15 15 15 15 16
30 30 31 31 31 31 30 29 28 27 26 25 24 23 22 22 21 21 20 20 20 19 19 18 18 17 17 17 17 17 17 16 16 16 16 16 16 17 17 17 17 17 17 17 17 17 17 17 17 17 17 17 17 17 17 17 17 17 17 17 17 17 17 17 16 16 16 16 16 16 15 15 15 15 15 14 14 14 14 14 13 13 14 14 14 14 14 14 14 14 14 15 15 15 15 15 16 16 15 15 16 16 16
31 31 31 31 30 30 29 28 28 27 26 26 25 24 23 23 22 22 21 21 20 20 19 19 19 19 19 19 19 18 18 18 18 18 17 17 17 17 17 18 18 18 18 18 18 18 18 18 18 18 18 18 17 17 17 17 17 17 17 17 17 17 17 17 17 16 17 17 17 17 16 16 16 16 16 16 15 15 15 14 14 14 14 14 14 13 13 14 14 14 14 14 14 15 15 15 16 16 16 16 16 16 16
30 30 29 29 29 28 28 27 27 26 26 26 25 25 24 24 23 23 22 22 21 21 21 20 20 20 20 21 21 20 20 20 20 20 19 19 19 19 19 19 19 19 19 19 19 20 20 20 20 20 19 19 19 18 18 18 17 17 17 17 16 16 16 16 17 16 17 17 17 17 17 17 17 17 16 16 16 16 16 16 15 15 15 14 14 14 14 14 14 14 14 14 14 14 14 15 15 16 16 17 17 17 17
29 29 28 28 28 27 27 26 26 26 26 25 25 25 24 24 24 24 23 23 23 22 22 22 22 22 23 23 23 23 23 22 22 22 21 21 21 20 20 20 20 20 20 20 20 20 20 21 21 21 20 20 20 20 19 19 18 18 18 17 17 17 17 17 17 16 17 17 17 17 17 17 17 17 17 17 17 17 17 17 17 17 16 16 16 15 15 15 14 14 14 14 14 14 14 14 14 15 15 17 17 17 18
29 29 29 28 28 27 27 27 27 26 26 26 26 25 25 24 24 24 24 24 24 24 24 24 24 24 24 24 24 25 25 25 24 24 24 23 22 22 21 21 21 21 21 21 21 21 21 21 21 21 21 21 20 20 20 19 19 19 18 18 18 18 18 17 17 17 17 17 17 17 17 17 17 17 17 17 17 17 18 18 18 18 19 18 18 18 17 17 16 16 15 15 15 15 14 14 14 15 16 16 17 18 20
30 30 30 30 30 29 29 29 28 28 28 27 27 26 25 25 25 25 25 25 25 25 25 25 25 25 25 26 26 26 26 26 26 25 25 25 24 24 23 22 22 22 22 22 21 21 21 21 21 21 20 20 20 19 19 19 19 19 18 18 18 18 18 18 18 18 18 18 17 17 17 17 17 17 17 17 17 18 19 19 20 20 21 21 21 21 21 20 19 19 18 18 17 17 16 16 16 16 16 16 16 17 18
32 32 32 32 31 31 31 31 30 30 29 29 29 28 27 27 26 26 26 26 26 26 26 26 26 26 26 26 26 26 26 26 26 26 25 25 25 25 24 24 24 23 23 23 22 22 22 21 21 20 20 19 19 18 18 18 18 18 18 18 18 18 18 18 18 18 18 18 18 18 18 18 18 18 18 18 18 19 20 20 21 22 23 24 25 26 27 25 26 26 25 24 23 22 20 20 19 18 18 18 18 19 19
34 34 34 34 33 33 33 33 32 32 31 31 31 30 30 30 30 29 29 29 28 28 27 27 27 27 27 27 26 26 26 25 25 25 24 25 24 24 24 24 24 24 24 24 23 23 23 22 21 21 20 19 18 18 17 17 17 17 17 17 17 17 17 17 17 17 17 17 18 18 18 18 18 18 18 18 19 20 20 21 22 23 25 26 26 27 28 29 31 31 30 30 29 28 27 25 25 24 22 23 24 24 25
35 35 35 35 35 35 34 34 34 33 33 33 33 33 32 33 33 33 32 32 32 31 30 30 29 29 29 28 27 27 26 25 25 24 24 24 24 24 24 24 24 24 25 25 24 24 24 23 22 21 21 20 19 18 18 18 17 17 17 17 17 17 17 17 17 17 17 17 17 17 17 18 18 18 18 19 19 20 21 22 23 24 26 27 29 30 30 32 32 32 32 31 32 32 31 31 29 28 27 27 27 27 28
37 37 36 36 36 36 35 35 35 34 34 34 35 35 35 35 36 36 35 35 35 34 34 33 33 32 32 31 30 29 28 27 27 26 25 25 25 25 25 25 25 25 25 24 24 24 24 23 23 22 21 21 20 19 19 19 18 18 18 18 18 17 17 17 17 17 17 17 17 17 17 17 17 18 18 19 19 20 21 22 23 25 27 28 29 30 32 32 32 32 32 32 32 32 33 33 33 33 32 31 31 31 29
39 39 39 38 38 38 37 37 37 37 36 36 37 37 37 37 37 38 38 37 37 36 36 36 35 35 34 33 32 31 30 30 30 29 29 28 28 27 27 27 27 26 26 26 25 25 24 24 23 22 22 21 21 20 20 20 20 19 19 19 19 19 18 18 18 18 18 18 18 18 18 18 18 18 18 19 19 20 21 22 23 24 26 27 29 31 32 32 32 32 32 32 32 32 32 33 33 33 33 33 34 33 33
42 42 42 42 42 41 41 41 40 40 39 40 40 40 40 40 40 40 40 39 39 39 38 38 37 37 37 36 35 34 34 34 34 33 33 32 31 31 30 30 30 30 29 29 28 27 26 26 25 24 24 23 23 22 22 22 21 21 21 21 21 20 20 20 20 20 20 20 20 20 19 19 19 19 19 20 20 20 21 22 23 24 25 26 28 30 32 32 32 32 32 32 32 32 32 32 32 33 33 33 33 33 34
44 44 44 44 44 44 43 43 43 42 43 43 43 43 43 43 42 42 42 41 41 40 40 40 39 39 39 38 37 37 36 36 36 36 36 35 34 34 34 34 33 33 33 32 31 30 29 29 28 27 27 26 26 25 25 25 25 24 24 24 23 23 23 23 23 23 23 23 22 22 22 22 22 22 22 22 22 23 23 24 24 25 26 26 28 29 31 32 32 33 32 32 32 32 32 32 32 32 32 33 33 33 33
44 45 45 45 44 44 43 42 42 43 44 44 44 44 43 43 42 41 41 40 40 40 40 40 39 39 39 38 38 38 37 37 37 37 36 35 35 35 35 35 35 34 34 34 33 33 32 32 31 31 30 30 29 29 29 29 28 28 27 27 27 27 27 26 26 26 26 26 26 26 26 26 26 26 26 26 26 26 26 26 27 27 27 28 28 29 30 31 32 33 34 34 34 34 34 34 33 33 33 33 33 33 33
43 43 43 42 41 40 39 39 40 40 41 41 40 40 39 38 37 37 37 36 36 37 37 37 37 37 36 36 36 35 35 34 34 34 33 32 32 32 32 32 32 32 32 31 31 31 31 31 31 31 31 31 31 31 31 31 31 31 30 30 30 30 30 30 29 29 30 30 30 30 30 30 30 30 30 30 30 30 30 30 30 30 30 30 30 31 31 32 32 33 33 34 35 35 35 35 35 35 35 35 35 35 35
41 40 39 37 36 35 35 35 35 34 34 34 33 33 32 32 31 31 31 31 32 32 32 32 32 32 31 31 30 29 29 29 28 28 27 26 26 26 26 26 26 26 26 26 26 26 26 26 26 27 27 27 27 28 28 29 29 29 29 29 29 29 29 29 29 30 30 30 31 31 31 32 32 32 32 32 32 32 32 32 32 32 32 32 33 33 33 33 34 34 34 35 35 35 36 37 37 38 38 38 38 38 38
35 34 33 32 31 31 30 30 29 28 27 27 26 26 26 26 26 26 26 26 26 26 26 26 26 25 25 25 24 24 23 23 23 22 21 21 20 20 20 20 20 20 20 20 19 19 19 19 19 19 19 20 20 20 21 21 22 22 23 23 24 24 24 25 25 25 26 26 27 27 28 29 29 30 30 30 31 31 31 31 31 31 32 32 32 32 32 33 33 33 34 34 35 35 36 37 38 39 40 40 40 41 41
31 30 29 28 27 26 26 25 24 23 23 22 22 22 22 22 22 22 22 22 22 22 21 21 21 21 21 20 20 20 20 19 19 19 18 18 17 17 17 17 17 17 17 17 16 16 15 15 15 15 15 15 15 15 15 15 15 15 16 16 17 17 18 18 19 19 20 21 21 22 23 24 24 25 25 26 26 27 27 27 27 27 28 28 28 28 29 29 29 30 30 31 32 32 33 34 36 37 38 39 40 41 41
26 26 24 23 22 21 21 21 20 20 20 19 19 19 20 20 19 19 19 19 19 19 19 19 19 19 18 18 18 18 18 17 17 17 17 17 17 17 17 17 17 16 16 16 16 15 15 15 14 14 14 14 14 13 13 13 13 13 13 13 13 13 13 14 14 15 15 16 17 18 19 20 21 22 23 23 23 23 24 24 24 24 24 24 24 25 25 25 25 26 26 26 27 27 28 29 30 32 33 35 36 38 39
22 21 20 19 19 18 18 18 18 18 18 18 18 18 18 18 18 17 17 17 17 17 17 18 18 18 18 18 18 17 17 17 17 17 17 17 17 17 17 17 17 16 16 16 15 15 15 15 15 14 14 14 14 14 14 13 13 13 13 13 13 12 12 12 12 13 13 14 14 15 16 17 18 20 21 21 22 22 23 23 23 23 24 24 24 24 24 24 24 24 24 24 24 24 25 25 26 27 28 29 31 32 33
19 19 18 18 18 18 17 18 18 17 17 17 17 17 17 17 17 17 17 17 17 17 17 17 18 18 18 18 17 17 17 17 17 17 17 17 17 17 17 17 17 16 16 16 16 15 15 15 15 15 15 15 15 14 14 14 14 14 14 14 14 14 13 13 13 13 14 14 14 15 15 15 16 17 18 19 19 20 21 22 22 23 23 24 24 24 24 24 24 24 24 24 24 24 24 25 25 25 26 26 27 28 29
18 18 17 17 17 17 17 17 17 17 17 17 16 16 16 17 17 17 17 17 17 17 17 17 17 17 18 18 18 18 18 17 17 17 17 17 17 17 17 17 16 16 16 16 16 16 15 15 15 15 15 15 15 15 15 15 15 15 15 15 15 15 15 15 15 16 16 16 16 16 16 16 16 16 17 17 17 18 18 19 20 20 21 21 22 22 23 23 24 24 24 24 25 25 25 25 25 25 26 26 26 26 27
18 17 17 17 17 17 17 16 16 16 16 16 16 16 16 16 17 17 17 17 17 17 17 17 17 17 17 18 18 17 18 17 17 17 17 17 17 17 16 16 16 16 16 16 15 15 15 15 15 15 15 15 15 15 15 15 15 15 16 16 16 16 16 17 17 17 17 17 17 17 18 18 18 18 18 17 18 18 18 18 18 19 19 19 19 19 20 20 20 21 21 22 22 23 23 24 24 25 25 25 26 26 26
17 17 17 16 16 16 16 16 16 16 16 16 16 16 16 16 16 16 16 16 16 16 16 16 16 17 17 17 17 17 17 17 17 17 17 17 17 16 16 16 15 15 15 15 15 15 14 14 14 14 14 14 14 14 14 15 15 16 16 16 16 17 17 17 18 18 18 18 18 18 18 18 18 19 19 18 18 18 19 19 19 19 18 18 18 18 18 17 18 18 18 18 19 19 20 20 21 21 22 23 23 24 25
16 16 16 15 15 15 15 15 15 16 15 15 16 16 15 15 15 15 15 15 15 16 16 16 16 16 16 17 17 17 17 17 16 16 16 16 16 16 15 15 15 15 15 14 14 14 14 14 13 13 13 14 13 13 14 14 14 15 15 15 16 16 17 17 17 18 18 18 18 19 19 19 19 19 19 19 19 19 19 19 19 19 19 18 18 18 17 17 17 17 17 17 17 17 17 18 18 18 19 19 20 20 21
15 15 14 14 14 14 14 15 15 15 15 15 15 15 15 15 15 15 15 15 15 15 16 16 16 16 16 16 16 16 16 16 16 16 16 16 16 16 16 15 15 15 14 14 14 13 13 13 13 13 13 13 13 13 13 13 13 14 14 14 15 15 15 16 16 17 17 17 18 18 18 18 18 18 18 18 18 18 19 19 19 19 19 19 18 18 18 18 18 18 18 18 18 18 18 17 17 17 18 18 18 18 18
14 13 13 13 13 13 14 14 14 14 14 14 14 14 14 14 14 15 15 15 15 15 16 16 16 16 16 16 16 16 16 16 16 16 17 16 16 16 16 15 15 14 14 14 13 13 13 13 12 12 12 13 13 13 13 13 13 14 14 14 14 14 14 15 15 15 16 16 16 16 16 16 16 16 16 17 17 17 17 17 17 17 18 18 18 18 18 18 19 19 19 19 19 19 19 19 19 19 19 19 18 19 18
13 12 12 12 12 13 13 13 14 14 14 14 14 14 14 14 14 14 15 15 15 16 16 16 16 16 16 16 16 16 16 16 17 17 17 17 17 16 15 15 15 15 14 14 14 14 13 13 13 13 13 13 13 14 14 14 14 14 14 14 14 14 14 14 14 14 15 15 15 15 15 15 15 15 15 16 16 16 16 16 16 16 17 17 17 17 18 18 18 18 19 19 19 19 19 20 20 20 20 20 20 20 20
12 12 11 12 12 12 12 13 13 13 13 13 13 13 13 13 14 14 14 15 15 16 16 16 17 17 17 17 17 17 17 17 17 18 18 18 18 18 17 17 16 15 15 15 15 15 14 14 14 14 14 14 15 15 15 15 15 15 14 14 14 14 14 14 14 14 15 15 15 15 15 15 16 16 16 16 16 16 16 16 16 17 17 17 17 18 18 18 18 19 19 19 19 19 20 20 20 20 20 20 21 21 21
12 11 11 11 12 12 12 12 12 13 13 13 13 13 13 13 14 14 14 15 15 16 16 17 17 17 18 18 18 17 17 17 18 19 19 19 19 19 20 19 19 18 17 16 16 16 16 15 15 15 16 16 16 17 16 16 16 15 15 15 15 14 14 14 14 15 15 15 15 16 16 16 17 17 17 17 17 17 17 18 18 18 18 18 18 19 19 19 19 19 19 20 20 20 20 20 20 20 20 21 21 21 21
12 11 11 11 12 12 12 12 12 13 13 13 13 13 13 13 13 14 14 15 15 16 17 17 17 18 18 18 18 18 18 18 18 19 20 19 19 20 21 21 21 21 20 20 19 18 17 17 17 17 18 18 18 18 17 17 16 16 16 16 15 15 15 15 15 15 15 15 15 15 16 16 17 17 17 17 18 18 18 18 18 18 18 18 18 18 18 18 18 18 19 19 19 19 19 20 20 20 20 21 21 21 21
12 12 12 12 12 12 12 13 13 13 13 13 13 13 13 13 14 14 15 15 15 16 17 18 18 19 19 19 19 19 19 19 19 19 20 20 21 21 22 23 23 23 23 23 22 21 19 19 19 19 19 19 19 19 18 18 18 17 17 17 16 16 16 15 15 15 15 15 15 15 15 15 16 16 16 16 16 16 16 16 16 16 16 16 16 16 16 16 16 16 16 16 16 16 16 17 17 18 18 19 19 20 20
12 12 12 12 12 13 13 13 13 13 13 13 13 14 13 14 14 14 15 15 16 17 18 18 19 20 20 20 20 20 20 20 20 20 20 21 21 23 24 24 25 25 25 25 24 22 20 20 20 20 21 21 20 20 19 19 19 19 18 18 17 17 16 16 16 16 15 15 15 14 14 14 14 14 15 15 15 15 15 15 15 15 15 15 15 15 15 14 14 14 14 14 14 14 14 14 14 15 15 15 16 17 18
12 12 12 12 13 13 13 13 13 13 13 14 14 14 14 14 14 15 15 16 17 18 18 19 19 20 21 21 21 21 21 21 21 21 21 21 22 23 24 25 25 25 25 24 23 22 21 21 22 23 23 22 22 21 21 21 20 20 19 19 18 18 17 17 16 16 16 15 15 14 14 14 14 14 14 14 14 14 15 15 15 15 15 15 15 15 14 14 14 14 13 13 13 13 13 13 13 13 14 14 14 15 16
12 12 13 13 13 13 13 13 13 13 13 14 14 14 14 15 15 16 16 17 18 18 19 19 20 20 21 22 22 23 23 22 22 22 22 22 23 23 24 25 26 27 25 24 23 23 23 23 24 25 24 23 23 23 23 22 22 21 21 20 19 19 18 18 17 17 16 16 15 15 15 15 15 15 15 15 15 15 15 15 15 15 15 14 14 14 14 14 14 14 13 13 13 13 13 13 13 14 14 14 14 15 15
12 12 13 13 13 13 13 13 13 13 14 14 14 14 15 15 16 16 17 18 18 18 19 20 20 21 21 23 23 24 24 24 23 23 23 23 24 24 24 24 25 25 26 26 25 25 25 25 26 27 25 24 24 24 24 23 23 22 22 21 20 19 19 19 18 18 17 17 16 16 16 16 15 15 15 15 15 15 14 14 14 14 14 14 14 14 14 13 13 13 13 13 13 13 13 13 13 14 14 14 15 15 15
12 12 12 12 13 12 13 13 13 13 14 14 15 15 15 16 17 17 18 18 18 19 19 20 21 22 22 23 24 25 25 25 24 24 24 25 24 24 24 24 24 24 24 25 25 26 26 27 27 27 26 25 25 25 24 24 24 23 23 22 21 20 20 20 19 19 18 17 17 17 16 16 16 16 16 15 15 14 14 14 13 13 13 13 13 13 13 13 13 13 13 13 13 13 13 13 13 14 14 14 15 15 16
12 12 12 12 12 12 12 13 13 13 14 14 15 15 16 16 17 18 18 19 19 19 20 21 22 23 24 24 25 26 26 26 26 26 26 26 25 25 24 24 24 24 25 25 25 25 26 27 27 27 27 27 26 25 24 24 24 24 23 22 22 22 21 21 20 20 19 18 18 17 17 16 16 16 16 16 15 14 14 13 13 13 13 13 13 13 13 13 13 13 14 14 14 14 14 14 14 14 14 15 15 16 16
13 12 12 12 13 12 13 13 13 14 14 15 15 16 16 17 18 18 18 19 19 20 21 22 23 23 24 25 26 26 27 27 27 27 27 27 27 26 26 26 26 26 26 26 26 26 26 26 26 26 27 27 27 26 26 25 25 24 24 23 23 23 23 22 22 21 20 19 19 18 17 17 16 16 16 15 15 14 14 13 13 13 13 13 13 13 13 13 14 14 14 14 15 15 15 15 15 15 15 16 16 17 17
13 13 13 13 13 13 13 13 13 14 14 15 16 16 17 17 18 18 19 19 20 20 21 22 23 24 25 26 26 27 27 28 28 28 28 29 29 28 28 28 28 28 28 27 27 27 27 26 26 26 27 28 28 28 28 26 26 26 25 24 24 24 24 23 23 22 21 21 20 19 18 17 17 16 16 15 15 14 14 13 13 13 13 13 13 14 14 14 14 15 15 15 15 15 15 15 16 16 16 17 17 17 17